TFL2799 EHRD-LGSR

Flight info

Callsign TFL2799
Flight time N/A
Altitude 37000
Route WOODY2A WOODY N872 NIK M624 REMBA DCT LIRSU DCT BANUX DCT VEKIR DCT RADIZ DCT NIPEL DCT VRANA DCT PETAK DCT DIMIS UL604 TRL/N0412F230 M601 MIL B34 PEXAN PEXAN1D
Aircraft B38M/M-SDE1FGHILORVWXY/HB1

Departure

Time N/A
Airport Rotterdam The Hague Airport (EHRD)

Arrival

Time 2026-04-21 17:39
Airport Santorini International Airport (LGSR)
Time Latitude Longitude Altitude Speed Heading
2026-04-21 16:53 40.02996 20.57569 38967 ft 481 kts 157°
2026-04-21 16:54 39.94498 20.63485 38961 ft 480 kts 156°
2026-04-21 16:54 39.86016 20.69429 38951 ft 479 kts 156°
2026-04-21 16:55 39.80496 20.74304 38980 ft 484 kts 141°
2026-04-21 16:55 39.75250 20.79799 38961 ft 484 kts 146°
2026-04-21 16:56 39.69950 20.85090 38972 ft 482 kts 147°
2026-04-21 16:56 39.64643 20.90351 38969 ft 484 kts 147°
2026-04-21 16:57 39.54513 21.00374 38970 ft 482 kts 147°
2026-04-21 16:57 39.46428 21.08337 38986 ft 482 kts 147°
2026-04-21 16:58 39.35823 21.18756 38960 ft 483 kts 147°
2026-04-21 16:58 39.28799 21.25600 38977 ft 482 kts 147°
2026-04-21 16:59 39.18079 21.36028 38978 ft 483 kts 147°
2026-04-21 16:59 39.07421 21.46396 38967 ft 482 kts 147°
2026-04-21 17:00 38.96716 21.56733 38967 ft 481 kts 147°
2026-04-21 17:00 38.90426 21.62865 38986 ft 480 kts 147°
2026-04-21 17:01 38.84163 21.68881 38977 ft 481 kts 147°
2026-04-21 17:01 38.77139 21.75625 38980 ft 479 kts 147°
2026-04-21 17:02 38.70508 21.81969 38984 ft 479 kts 148°
2026-04-21 17:02 38.64211 21.87998 38993 ft 481 kts 148°
2026-04-21 17:03 38.57685 21.94218 38974 ft 480 kts 148°
2026-04-21 17:03 38.50419 22.01128 38987 ft 481 kts 148°
2026-04-21 17:04 38.42413 22.08720 38978 ft 481 kts 148°
2026-04-21 17:04 38.33671 22.17019 38965 ft 481 kts 147°
2026-04-21 17:05 38.22988 22.27054 38963 ft 480 kts 149°
2026-04-21 17:05 38.12225 22.37150 38969 ft 480 kts 148°
2026-04-21 17:06 38.02077 22.46667 38937 ft 479 kts 148°
2026-04-21 17:06 37.95939 22.52393 38965 ft 477 kts 148°
2026-04-21 17:07 37.87035 22.60705 38970 ft 478 kts 148°
2026-04-21 17:07 37.77168 22.69816 38937 ft 478 kts 148°
2026-04-21 17:08 37.66435 22.79766 38933 ft 479 kts 147°
2026-04-21 17:08 37.55772 22.89576 38935 ft 479 kts 148°
2026-04-21 17:09 37.47739 22.96952 38929 ft 479 kts 148°
2026-04-21 17:09 37.42366 23.01873 38930 ft 480 kts 148°
2026-04-21 17:10 37.36971 23.06806 38933 ft 479 kts 148°
2026-04-21 17:10 37.31576 23.11731 38931 ft 480 kts 148°
2026-04-21 17:11 37.28865 23.14201 38738 ft 482 kts 148°
2026-04-21 17:11 37.26159 23.16665 37856 ft 480 kts 148°
2026-04-21 17:11 37.23454 23.19126 36815 ft 479 kts 148°
2026-04-21 17:11 37.20761 23.21574 35843 ft 477 kts 148°
2026-04-21 17:12 37.18073 23.24015 34919 ft 474 kts 148°
2026-04-21 17:12 37.15451 23.26421 34043 ft 473 kts 144°
2026-04-21 17:12 37.13107 23.29323 33040 ft 478 kts 129°
2026-04-21 17:12 37.11387 23.32931 32059 ft 484 kts 114°
2026-04-21 17:13 37.10140 23.36879 31133 ft 490 kts 112°
2026-04-21 17:13 37.08917 23.40834 30212 ft 495 kts 111°
2026-04-21 17:13 37.07681 23.44870 29160 ft 499 kts 111°
2026-04-21 17:13 37.06438 23.48951 28100 ft 502 kts 111°
2026-04-21 17:14 37.05193 23.53043 27095 ft 502 kts 111°
2026-04-21 17:14 37.03968 23.57087 26185 ft 491 kts 111°
2026-04-21 17:14 37.02771 23.61040 25325 ft 481 kts 111°
2026-04-21 17:14 37.01589 23.64931 24520 ft 474 kts 111°
2026-04-21 17:15 37.00428 23.68750 23733 ft 465 kts 111°
2026-04-21 17:15 36.99288 23.72495 22834 ft 457 kts 111°
2026-04-21 17:15 36.98164 23.76178 21929 ft 449 kts 111°
2026-04-21 17:15 36.97056 23.79802 21043 ft 443 kts 111°
2026-04-21 17:16 36.95961 23.83380 20198 ft 442 kts 111°
2026-04-21 17:16 36.94867 23.86943 19267 ft 449 kts 111°
2026-04-21 17:16 36.93724 23.90667 18356 ft 456 kts 111°
2026-04-21 17:16 36.92597 23.94336 17357 ft 461 kts 111°
2026-04-21 17:17 36.91440 23.98104 16340 ft 463 kts 111°
2026-04-21 17:17 36.90300 24.01811 15425 ft 451 kts 111°
2026-04-21 17:17 36.89189 24.05420 14537 ft 440 kts 111°
2026-04-21 17:17 36.88104 24.08942 13864 ft 426 kts 111°
2026-04-21 17:18 36.87055 24.12347 12998 ft 417 kts 111°
2026-04-21 17:18 36.86019 24.15700 12051 ft 411 kts 111°
2026-04-21 17:18 36.84989 24.19002 11139 ft 404 kts 113°
2026-04-21 17:18 36.83886 24.22197 10249 ft 398 kts 113°
2026-04-21 17:19 36.82801 24.25349 9347 ft 392 kts 113°
2026-04-21 17:19 36.81726 24.28462 8425 ft 386 kts 113°
2026-04-21 17:19 36.80671 24.31514 7532 ft 380 kts 113°
2026-04-21 17:19 36.79662 24.34445 7206 ft 359 kts 112°
2026-04-21 17:20 36.78722 24.37199 7192 ft 332 kts 113°
2026-04-21 17:20 36.77838 24.39742 7180 ft 307 kts 113°
2026-04-21 17:20 36.77009 24.42130 7142 ft 296 kts 113°
2026-04-21 17:20 36.76193 24.44476 7051 ft 293 kts 112°
2026-04-21 17:21 36.75385 24.46802 6986 ft 292 kts 113°
2026-04-21 17:21 36.74578 24.49118 6976 ft 291 kts 113°
2026-04-21 17:21 36.74040 24.50662 6973 ft 292 kts 112°
2026-04-21 17:21 36.73231 24.52986 6951 ft 292 kts 112°
2026-04-21 17:22 36.72417 24.55316 6983 ft 292 kts 113°
2026-04-21 17:22 36.71346 24.58387 6973 ft 291 kts 113°
2026-04-21 17:22 36.70801 24.59947 6959 ft 291 kts 112°
2026-04-21 17:22 36.69986 24.62275 6967 ft 293 kts 112°
2026-04-21 17:23 36.69179 24.64584 6968 ft 295 kts 112°
2026-04-21 17:23 36.68357 24.66932 6974 ft 295 kts 112°
2026-04-21 17:23 36.67533 24.69282 6971 ft 295 kts 113°
2026-04-21 17:23 36.66716 24.71613 6962 ft 293 kts 112°
2026-04-21 17:24 36.65896 24.73949 6979 ft 294 kts 112°
2026-04-21 17:24 36.65068 24.76306 6974 ft 297 kts 113°
2026-04-21 17:24 36.64242 24.78657 6968 ft 295 kts 112°
2026-04-21 17:24 36.63419 24.80994 6982 ft 293 kts 113°
2026-04-21 17:25 36.62598 24.83328 6957 ft 295 kts 113°
2026-04-21 17:25 36.61786 24.85636 6979 ft 295 kts 112°
2026-04-21 17:25 36.60956 24.87988 6974 ft 297 kts 113°
2026-04-21 17:25 36.60126 24.90341 6965 ft 296 kts 113°
2026-04-21 17:26 36.59302 24.92674 6965 ft 293 kts 112°
2026-04-21 17:26 36.58480 24.95002 6976 ft 295 kts 113°
2026-04-21 17:26 36.57654 24.97336 6975 ft 295 kts 113°
2026-04-21 17:26 36.56825 24.99678 6980 ft 295 kts 113°
2026-04-21 17:27 36.55999 25.02012 6907 ft 295 kts 113°
2026-04-21 17:27 36.55183 25.04313 6664 ft 293 kts 113°
2026-04-21 17:27 36.54350 25.06663 6406 ft 293 kts 113°
2026-04-21 17:27 36.53527 25.08983 6135 ft 294 kts 113°
2026-04-21 17:28 36.52713 25.11269 5881 ft 293 kts 114°
2026-04-21 17:28 36.51891 25.13582 5618 ft 291 kts 114°
2026-04-21 17:28 36.51074 25.15878 5356 ft 290 kts 115°
2026-04-21 17:28 36.50260 25.18166 5107 ft 289 kts 114°
2026-04-21 17:29 36.49448 25.20444 4978 ft 287 kts 115°
2026-04-21 17:29 36.48642 25.22703 4986 ft 285 kts 115°
2026-04-21 17:29 36.47836 25.24962 4983 ft 284 kts 115°
2026-04-21 17:29 36.47036 25.27205 4984 ft 285 kts 115°
2026-04-21 17:30 36.46226 25.29473 4976 ft 287 kts 115°
2026-04-21 17:30 36.45413 25.31743 4994 ft 287 kts 115°
2026-04-21 17:30 36.44615 25.33973 4987 ft 278 kts 115°
2026-04-21 17:30 36.43847 25.36122 4995 ft 273 kts 115°
2026-04-21 17:31 36.43074 25.38276 4983 ft 274 kts 115°
2026-04-21 17:31 36.42307 25.40415 4986 ft 266 kts 115°
2026-04-21 17:31 36.41572 25.42462 4989 ft 252 kts 115°
2026-04-21 17:31 36.40877 25.44399 4992 ft 243 kts 115°
2026-04-21 17:32 36.40189 25.46311 5040 ft 243 kts 115°
2026-04-21 17:32 36.39337 25.48103 4980 ft 239 kts 132°
2026-04-21 17:32 36.38221 25.49583 4960 ft 229 kts 137°
2026-04-21 17:32 36.37122 25.50959 4819 ft 219 kts 137°
2026-04-21 17:33 36.36075 25.52297 4492 ft 215 kts 137°
2026-04-21 17:33 36.35047 25.53612 4215 ft 210 kts 136°
2026-04-21 17:33 36.34029 25.54903 3854 ft 207 kts 137°
2026-04-21 17:33 36.33054 25.56164 3679 ft 197 kts 137°
2026-04-21 17:34 36.32139 25.57340 3468 ft 186 kts 137°
2026-04-21 17:34 36.31263 25.58490 3169 ft 181 kts 136°
2026-04-21 17:34 36.30403 25.59626 3003 ft 181 kts 137°
2026-04-21 17:34 36.29499 25.60711 2961 ft 180 kts 152°
2026-04-21 17:35 36.28352 25.61049 2895 ft 167 kts 194°
2026-04-21 17:35 36.27399 25.60346 2915 ft 161 kts 237°
2026-04-21 17:35 36.27056 25.59028 2968 ft 165 kts 263°
2026-04-21 17:35 36.27160 25.57606 2813 ft 168 kts 287°
2026-04-21 17:36 36.27828 25.56395 2520 ft 173 kts 308°
2026-04-21 17:36 36.28619 25.55308 2223 ft 169 kts 310°
2026-04-21 17:36 36.29440 25.54327 2174 ft 161 kts 315°
2026-04-21 17:36 36.30292 25.53448 1939 ft 157 kts 318°
2026-04-21 17:37 36.31181 25.52664 1685 ft 157 kts 321°
2026-04-21 17:37 36.32089 25.51930 1526 ft 155 kts 326°
2026-04-21 17:37 36.33053 25.51310 1410 ft 156 kts 331°
2026-04-21 17:37 36.34049 25.50771 1122 ft 157 kts 334°
2026-04-21 17:38 36.35078 25.50277 956 ft 160 kts 335°
2026-04-21 17:38 36.36102 25.49801 673 ft 156 kts 334°
2026-04-21 17:38 36.37081 25.49289 471 ft 152 kts 331°
2026-04-21 17:38 36.38079 25.48786 283 ft 158 kts 336°
2026-04-21 17:39 36.39058 25.48332 68 ft 148 kts 332°
2026-04-21 17:39 36.39891 25.47929 86 ft 94 kts 340°
2026-04-21 17:39 36.40301 25.47731 92 ft 16 kts 335°
2026-04-21 17:39 36.40298 25.47621 92 ft 12 kts 244°
2026-04-21 17:40 36.40294 25.47608 91 ft 1 kts 249°
2026-04-21 17:40 36.40288 25.47589 94 ft 4 kts 248°
2026-04-21 17:40 36.40276 25.47551 93 ft 6 kts 249°
2026-04-21 17:40 36.40264 25.47502 93 ft 6 kts 269°
2026-04-21 17:41 36.40292 25.47468 94 ft 7 kts 337°
2026-04-21 17:41 36.40326 25.47452 94 ft 1 kts 340°
2026-04-21 17:41 36.40232 25.47444 93 ft 0 kts 249°